EW7528 Weather Reports


time (UTC)temp
C
wind
direction
speed
KPH
gust
KPH
rain 1hr
cm
rain 24hr
cm
rain mn
cm
humidity
%
barometer
mb
20260506155904 13 82 4.8 14.5 0.00 0.00 0.00 65 1009.4
20260506155357 13 96 3.2 14.5 0.00 0.00 0.00 66 1009.5
20260506154851 13 84 3.2 12.9 0.00 0.00 0.00 65 1009.5
20260506154345 13 336 3.2 16.1 0.00 0.00 0.00 65 1009.5
20260506154101 13 0 4.8 16.1 0.00 0.00 0.00 64 1009.4
20260506153333 13 5 4.8 17.7 0.00 0.00 0.00 63 1009.5
20260506152827 13 15 3.2 22.5 0.00 0.00 0.00 64 1009.5
20260506152321 13 35 6.4 22.5 0.00 0.00 0.00 62 1009.4
20260506151815 13 26 6.4 20.9 0.00 0.00 0.00 60 1009.4
20260506151310 14 154 4.8 14.5 0.00 0.00 0.00 62 1009.4
20260506150803 14 305 4.8 16.1 0.00 0.00 0.00 63 1009.2
20260506150515 14 17 6.4 16.1 0.00 0.00 0.00 61 1009.3
20260506145749 14 91 6.4 17.7 0.00 0.00 0.00 60 1009.3
20260506145243 14 65 6.4 17.7 0.00 0.00 0.00 62 1009.2
20260506144737 14 119 6.4 17.7 0.00 0.00 0.00 59 1009.1
20260506144233 14 35 4.8 14.5 0.00 0.00 0.00 58 1009.1
20260506143727 14 14 4.8 14.5 0.00 0.00 0.00 57 1009.1
20260506143220 14 61 6.4 17.7 0.00 0.00 0.00 58 1009.0
20260506142713 14 72 6.4 17.7 0.00 0.00 0.00 57 1009.1
20260506142209 14 11 6.4 24.1 0.00 0.00 0.00 58 1009.1
20260506141701 14 9 6.4 24.1 0.00 0.00 0.00 57 1009.1
20260506141156 14 17 6.4 16.1 0.00 0.00 0.00 58 1009.1
20260506140909 14 23 6.4 16.1 0.00 0.00 0.00 61 1009.2
20260506140403 14 342 6.4 14.5 0.00 0.00 0.00 63 1009.2
20260506135637 14 45 6.4 17.7 0.00 0.00 0.00 63 1009.2
20260506135132 15 41 8.0 17.7 0.00 0.00 0.00 65 1009.2
20260506134626 15 355 8.0 19.3 0.00 0.00 0.00 62 1009.0
20260506134119 15 0 8.0 19.3 0.00 0.00 0.00 62 1009.1
20260506133614 15 5 6.4 19.3 0.00 0.00 0.00 60 1009.0
20260506133327 15 5 6.4 19.3 0.00 0.00 0.00 62 1009.1
20260506132601 15 48 6.4 20.9 0.00 0.00 0.00 63 1009.0
20260506132327 15 39 8.0 20.9 0.00 0.00 0.00 62 1009.0
20260506131549 15 0 8.0 20.9 0.00 0.00 0.00 60 1008.9
20260506131249 15 335 9.7 25.7 0.00 0.00 0.00 62 1008.9
20260506131135 15 313 6.4 17.7 0.00 0.00 0.00 63 1008.8
20260506130040 15 78 8.0 25.7 0.00 0.00 0.00 61 1008.9
20260506125539 15 344 8.0 19.3 0.00 0.00 0.00 62 1008.8
20260506125039 15 16 6.4 19.3 0.00 0.00 0.00 62 1008.7
20260506124539 15 9 9.7 19.3 0.00 0.00 0.00 64 1008.7
20260506124039 15 5 9.7 19.3 0.00 0.00 0.00 64 1008.7
20260506123540 15 5 6.4 19.3 0.00 0.00 0.00 64 1008.7
20260506123040 15 347 6.4 19.3 0.00 0.00 0.00 66 1008.7
20260506122540 14 17 6.4 17.7 0.00 0.00 0.00 67 1008.6
20260506122040 14 5 6.4 17.7 0.00 0.00 0.00 65 1008.7
20260506121541 14 0 9.7 22.5 0.00 0.00 0.00 64 1008.6
20260506121039 14 9 9.7 22.5 0.00 0.00 0.00 60 1008.7
20260506120539 14 343 11.3 22.5 0.00 0.00 0.00 63 1008.7
20260506120039 14 319 11.3 24.1 0.00 0.00 0.00 60 1008.5
20260506115803 15 348 11.3 24.1 0.00 0.00 0.00 59 1008.6
20260506115037 15 346 12.9 25.7 0.00 0.00 0.00 61 1008.5
20260506114535 15 27 12.9 25.7 0.00 0.00 0.00 58 1008.6
20260506114035 15 5 11.3 25.7 0.00 0.00 0.00 64 1008.4
20260506113529 15 327 11.3 22.5 0.00 0.00 0.00 64 1008.4
20260506113248 15 41 9.7 22.5 0.00 0.00 0.00 65 1008.4
20260506112517 15 341 11.3 22.5 0.00 0.00 0.00 66 1008.4
20260506112013 15 24 9.7 20.9 0.00 0.00 0.00 65 1008.5
20260506111513 15 15 8.0 17.7 0.00 0.00 0.00 64 1008.4
20260506111013 15 20 6.4 16.1 0.00 0.00 0.00 66 1008.4
20260506110513 15 18 8.0 19.3 0.00 0.00 0.00 66 1008.3
20260506110010 14 36 8.0 19.3 0.00 0.00 0.00 66 1008.2
20260506105511 13 350 6.4 17.7 0.00 0.00 0.00 66 1008.4
20260506105010 13 336 6.4 14.5 0.00 0.00 0.00 66 1008.4
20260506104511 13 355 6.4 17.7 0.00 0.00 0.00 66 1008.5
20260506104009 13 44 8.0 19.3 0.00 0.00 0.00 66 1008.4
20260506103509 13 30 8.0 19.3 0.00 0.00 0.00 66 1008.4
20260506103231 13 351 8.0 17.7 0.00 0.00 0.00 65 1008.4
20260506102509 14 17 6.4 17.7 0.00 0.00 0.00 66 1008.4
20260506102009 14 336 8.0 19.3 0.00 0.00 0.00 67 1008.3
20260506101509 13 313 8.0 20.9 0.00 0.00 0.00 68 1008.4
20260506101448 14 355 9.7 20.9 0.00 0.00 0.00 69 1008.3
20260506100509 14 335 9.7 24.1 0.00 0.00 0.00 69 1008.5
20260506100009 14 333 8.0 24.1 0.00 0.00 0.00 71 1008.4
20260506095508 14 348 8.0 20.9 0.00 0.00 0.00 73 1008.4
20260506095009 14 342 8.0 19.3 0.00 0.00 0.00 73 1008.3
20260506094508 14 336 8.0 20.9 0.00 0.00 0.00 73 1008.4
20260506094225 14 344 9.7 24.1 0.00 0.00 0.00 73 1008.3
20260506093502 14 348 9.7 24.1 0.00 0.00 0.00 72 1008.3
20260506093003 14 5 8.0 24.1 0.00 0.00 0.00 73 1008.3
20260506092503 14 23 8.0 19.3 0.00 0.00 0.00 75 1008.4
20260506092004 13 355 6.4 19.3 0.00 0.00 0.00 75 1008.3
20260506091503 13 329 6.4 17.7 0.00 0.00 0.00 76 1008.2
20260506091002 13 355 6.4 17.7 0.00 0.00 0.00 75 1008.2
20260506090503 13 347 8.0 19.3 0.00 0.00 0.00 75 1008.2
20260506090002 13 350 8.0 19.3 0.00 0.00 0.00 76 1008.1
20260506085723 13 337 9.7 22.5 0.00 0.00 0.00 76 1008.2
20260506085002 13 355 11.3 24.1 0.00 0.00 0.00 76 1008.2
20260506084731 13 34 9.7 24.1 0.00 0.00 0.00 77 1008.2
20260506084221 13 351 9.7 20.9 0.00 0.00 0.00 78 1008.2
20260506083502 13 348 9.7 20.9 0.00 0.00 0.00 79 1008.1
20260506083003 12 350 9.7 20.9 0.00 0.00 0.00 80 1008.1
20260506082725 12 346 8.0 19.3 0.00 0.00 0.00 81 1007.9
20260506082001 12 21 9.7 22.5 0.00 0.00 0.00 82 1008.0
20260506081500 12 342 9.7 22.5 0.00 0.00 0.00 82 1008.0
20260506080956 12 320 9.7 22.5 0.00 0.00 0.00 83 1008.0
20260506080447 12 0 8.0 19.3 0.00 0.00 0.00 83 1008.0
20260506073415 11 350 6.4 16.1 0.00 0.00 0.00 86 1008.1
20260506072916 11 327 4.8 16.1 0.00 0.00 0.00 87 1007.9
20260506072414 11 0 6.4 19.3 0.00 0.00 0.00 87 1007.8
20260506071914 11 346 8.0 19.3 0.00 0.00 0.00 87 1007.9
20260506071413 11 26 8.0 17.7 0.00 0.00 0.00 88 1007.9
20260506070914 11 323 8.0 17.7 0.00 0.00 0.00 89 1007.9
20260506070412 11 340 8.0 19.3 0.00 0.00 0.00 89 1007.9
20260506061954 10 347 3.2 17.7 0.00 0.00 0.00 93 1007.7
20260506061222 10 355 3.2 12.9 0.00 0.00 0.00 93 1007.7
20260506060718 10 5 3.2 12.9 0.00 0.00 0.00 93 1007.7
20260506060210 10 355 3.2 12.9 0.00 0.00 0.00 93 1007.7
20260506051128 9 355 4.8 14.5 0.00 0.00 0.00 93 1007.8
20260506050628 9 9 4.8 14.5 0.00 0.00 0.00 93 1007.8
20260506050350 9 13 4.8 17.7 0.00 0.00 0.00 92 1007.8
20260506045128 9 0 3.2 16.1 0.00 0.00 0.00 92 1007.8
20260506044629 9 9 4.8 12.9 0.00 0.00 0.00 92 1007.9
20260506044128 9 355 6.4 16.1 0.00 0.00 0.00 92 1007.8
20260506043626 9 18 6.4 16.1 0.00 0.00 0.00 92 1007.9
20260506043126 9 14 6.4 14.5 0.00 0.00 0.00 91 1007.9
20260506042626 9 334 6.4 14.5 0.00 0.00 0.00 91 1007.9
20260506042125 9 22 4.8 16.1 0.00 0.00 0.00 91 1007.9
20260506041627 9 10 4.8 17.7 0.00 0.00 0.00 91 1007.9
20260506041347 9 9 4.8 17.7 0.00 0.00 0.00 90 1007.8
20260506040843 9 343 6.4 16.1 0.00 0.00 0.00 90 1007.9
20260506040122 9 355 6.4 14.5 0.00 0.00 0.00 89 1007.8
20260506035623 9 355 6.4 14.5 0.00 0.00 0.00 89 1007.8
20260506035122 10 348 8.0 17.7 0.00 0.00 0.00 88 1007.8
20260506034846 10 350 6.4 17.7 0.00 0.00 0.00 88 1007.8
20260506034340 10 334 4.8 14.5 0.00 0.00 0.00 87 1007.9
20260506033623 10 5 8.0 19.3 0.00 0.00 0.00 87 1007.9
20260506033122 10 0 8.0 19.3 0.00 0.00 0.00 86 1007.9
20260506032622 10 5 6.4 17.7 0.00 0.00 0.00 86 1007.9
20260506032122 10 340 4.8 16.1 0.00 0.00 0.00 86 1007.9
20260506031622 10 355 6.4 16.1 0.00 0.00 0.00 86 1007.9
20260506031121 10 17 4.8 16.1 0.00 0.00 0.00 86 1007.9
20260506030839 10 334 4.8 16.1 0.00 0.00 0.00 86 1008.0
20260506030117 10 5 6.4 16.1 0.00 0.00 0.00 86 1008.0
20260506025618 10 19 6.4 17.7 0.00 0.00 0.00 86 1008.1
20260506025340 10 0 6.4 17.7 0.00 0.00 0.00 86 1008.1
20260506024617 10 14 6.4 16.1 0.00 0.00 0.00 86 1008.1
20260506024117 10 5 6.4 16.1 0.00 0.00 0.00 86 1008.1
20260506023617 10 355 6.4 17.7 0.00 0.00 0.00 86 1008.2
20260506023117 10 347 9.7 22.5 0.00 0.00 0.00 86 1008.1
20260506022619 10 355 6.4 22.5 0.00 0.00 0.00 86 1008.2
20260506022117 10 355 6.4 17.7 0.00 0.00 0.00 86 1008.2
20260506021612 10 355 6.4 17.7 0.00 0.00 0.00 85 1008.2
20260506021105 10 5 6.4 17.7 0.00 0.00 0.00 85 1008.2
20260506020557 10 355 4.8 16.1 0.00 0.00 0.00 85 1008.2
20260506020051 10 348 4.8 19.3 0.00 0.00 0.00 85 1008.2
20260506015545 10 348 4.8 19.3 0.00 0.00 0.00 85 1008.3
20260506015305 10 5 3.2 12.9 0.00 0.00 0.00 85 1008.3
20260506014756 10 5 4.8 14.5 0.00 0.00 0.00 84 1008.3
20260506014027 10 351 4.8 17.7 0.00 0.00 0.00 84 1008.3
20260506013521 10 5 6.4 17.7 0.00 0.00 0.00 84 1008.2
20260506013014 10 338 6.4 19.3 0.00 0.00 0.00 84 1008.2
20260506012509 10 355 6.4 19.3 0.00 0.00 0.00 84 1008.2
20260506012002 10 351 6.4 16.1 0.00 0.00 0.00 84 1008.2
20260506011459 10 355 4.8 16.1 0.00 0.00 0.00 84 1008.3
20260506010951 10 355 8.0 17.7 0.00 0.00 0.00 83 1008.4
20260506010707 10 0 8.0 17.7 0.00 0.00 0.00 83 1008.4
20260506005940 10 14 4.8 14.5 0.00 0.00 0.00 83 1008.5
20260506005433 10 355 3.2 12.9 0.00 0.00 0.00 83 1008.5
20260506005150 10 11 6.4 19.3 0.00 0.00 0.00 83 1008.6
20260506004422 10 348 8.0 19.3 0.00 0.00 0.00 83 1008.7
20260506004408 10 23 8.0 17.7 0.00 0.00 0.00 83 1008.6
20260506003408 10 355 6.4 14.5 0.00 0.00 0.00 83 1008.7
20260506002903 10 0 4.8 16.1 0.00 0.00 0.00 83 1008.7
20260506002358 10 341 4.8 16.1 0.00 0.00 0.00 82 1008.7
20260506001852 10 349 4.8 12.9 0.00 0.00 0.00 82 1008.8
20260506001345 10 0 4.8 12.9 0.00 0.00 0.00 82 1008.8
20260506000839 10 5 3.2 16.1 0.00 0.00 0.00 82 1008.8
20260506000607 10 14 3.2 16.1 0.00 0.00 0.00 82 1008.8
20260505235826 10 355 4.8 14.5 0.00 0.00 0.00 82 1008.8
20260505235321 10 355 4.8 16.1 0.00 0.00 0.00 82 1008.8
20260505234815 10 0 6.4 16.1 0.00 0.00 0.00 82 1008.8
20260505234309 10 344 6.4 16.1 0.00 0.00 0.00 82 1008.9
20260505233804 10 355 4.8 16.1 0.00 0.00 0.00 82 1008.9
20260505233519 10 23 4.8 14.5 0.00 0.00 0.00 82 1008.9
20260505232753 10 355 6.4 19.3 0.00 0.00 0.00 82 1008.9
20260505232245 10 17 8.0 19.3 0.00 0.00 0.00 82 1009.0
20260505231746 10 5 6.4 17.7 0.00 0.00 0.00 82 1009.5
20260505231245 10 0 4.8 16.1 0.00 0.00 0.00 82 1009.0
20260505231230 10 350 4.8 11.3 0.00 0.00 0.00 82 1009.1
20260505230245 10 5 4.8 17.7 0.00 0.00 0.00 81 1009.1
20260505225743 10 16 4.8 17.7 0.00 0.00 0.00 81 1009.1
20260505225243 10 333 4.8 14.5 0.00 0.00 0.00 81 1009.1
20260505225005 10 355 4.8 14.5 0.00 0.00 0.00 81 1009.1
20260505224243 10 5 6.4 14.5 0.00 0.00 0.00 81 1009.0
20260505223742 10 355 4.8 12.9 0.00 0.00 0.00 81 1009.1
20260505223247 10 343 6.4 16.1 0.00 0.00 0.00 81 1009.1
20260505223243 10 5 4.8 12.9 0.00 0.00 0.00 81 1009.2
20260505222243 10 331 8.0 16.1 0.00 0.00 0.00 81 1009.1
20260505222232 10 40 6.4 16.1 0.00 0.00 0.00 81 1009.1
20260505221510 10 17 6.4 16.1 0.00 0.00 0.00 81 1009.1
20260505220743 10 355 6.4 16.1 0.00 0.00 0.00 81 1009.2
20260505220243 10 355 6.4 14.5 0.00 0.00 0.00 82 1009.3
20260505215736 10 0 6.4 16.1 0.00 0.00 0.00 81 1009.0
20260505215230 10 10 6.4 16.1 0.00 0.00 0.00 81 1009.3
20260505214724 10 0 4.8 14.5 0.00 0.00 0.00 81 1009.3
20260505214218 10 0 6.4 14.5 0.00 0.00 0.00 81 1009.2
20260505213713 10 29 8.0 14.5 0.00 0.00 0.00 81 1009.3
20260505213657 10 355 6.4 17.7 0.00 0.00 0.00 80 1009.4
20260505212700 10 5 6.4 22.5 0.00 0.00 0.00 80 1009.3
20260505212154 10 350 8.0 22.5 0.00 0.00 0.00 80 1009.3
20260505212134 11 339 6.4 17.7 0.00 0.00 0.00 79 1009.3
20260505211145 11 346 6.4 14.5 0.00 0.00 0.00 79 1009.3
20260505210644 11 15 6.4 16.1 0.00 0.00 0.00 79 1009.4
20260505210144 11 339 6.4 16.1 0.00 0.00 0.00 79 1009.3
20260505205645 11 5 8.0 17.7 0.00 0.00 0.00 78 1009.4
20260505205145 11 350 8.0 24.1 0.00 0.00 0.00 78 1009.4
20260505204905 11 0 9.7 24.1 0.00 0.00 0.00 78 1009.4
20260505204145 11 344 11.3 24.1 0.00 0.00 0.00 77 1009.4
20260505203644 11 5 11.3 24.1 0.00 0.00 0.00 77 1009.4
20260505203400 11 5 11.3 22.5 0.00 0.00 0.00 77 1009.4
20260505202909 11 26 12.9 25.7 0.00 0.00 0.00 77 1009.4
20260505202144 11 20 11.3 25.7 0.00 0.00 0.00 77 1009.5
20260505201644 11 5 8.0 20.9 0.00 0.00 0.00 77 1009.5
20260505201145 11 34 9.7 24.1 0.00 0.00 0.00 77 1009.5
20260505200646 11 21 12.9 25.7 0.00 0.00 0.00 77 1009.5
20260505200144 11 346 12.9 25.7 0.00 0.00 0.00 77 1009.5
20260505195644 11 5 12.9 25.7 0.00 0.00 0.00 77 1009.4
20260505195144 11 22 12.9 24.1 0.00 0.00 0.00 77 1009.4
20260505194638 11 0 11.3 24.1 0.00 0.00 0.00 77 1009.5
20260505194358 12 9 11.3 24.1 0.00 0.00 0.00 77 1009.4
20260505193628 12 9 9.7 20.9 0.00 0.00 0.00 77 1009.3
20260505193120 12 9 11.3 25.7 0.00 0.00 0.00 76 1009.2
20260505192614 12 19 11.3 25.7 0.00 0.00 0.00 76 1009.1
20260505192112 12 38 11.3 24.1 0.00 0.00 0.00 75 1009.1
20260505191613 12 20 11.3 32.2 0.00 0.00 0.00 75 1009.1
20260505191112 12 351 9.7 32.2 0.00 0.00 0.00 75 1009.0
20260505190612 12 0 9.7 22.5 0.00 0.00 0.00 75 1009.0
20260505190112 12 5 8.0 22.5 0.00 0.00 0.00 76 1008.9
20260505185838 12 355 8.0 24.1 0.00 0.00 0.00 75 1008.9
20260505185112 12 355 9.7 24.1 0.00 0.00 0.00 75 1008.9
20260505184615 12 5 9.7 20.9 0.00 0.00 0.00 74 1008.8
20260505184110 12 355 9.7 19.3 0.00 0.00 0.00 74 1008.9
20260505183610 12 24 9.7 22.5 0.00 0.00 0.00 74 1008.8
20260505183331 12 349 9.7 22.5 0.00 0.00 0.00 74 1008.8
20260505182610 13 355 8.0 22.5 0.00 0.00 0.00 74 1008.8
20260505182112 13 0 8.0 19.3 0.00 0.00 0.00 74 1008.8
20260505181610 13 9 8.0 19.3 0.00 0.00 0.00 74 1008.7
20260505181107 13 355 8.0 17.7 0.00 0.00 0.00 74 1008.7
20260505180606 13 0 11.3 30.6 0.00 0.00 0.00 73 1008.7
20260505180107 13 327 11.3 30.6 0.00 0.00 0.00 73 1008.6
20260505175605 13 11 8.0 19.3 0.00 0.00 0.00 73 1008.6
20260505175106 13 30 8.0 19.3 0.00 0.00 0.00 73 1008.6
20260505174825 13 20 9.7 27.4 0.00 0.00 0.00 73 1008.5
20260505174106 13 349 9.7 27.4 0.00 0.00 0.00 72 1008.4
20260505173828 13 19 9.7 19.3 0.00 0.00 0.00 72 1008.5
20260505173106 14 12 9.7 24.1 0.00 0.00 0.00 72 1008.5
20260505172603 14 0 9.7 24.1 0.00 0.00 0.00 72 1008.6
20260505172104 14 12 9.7 20.9 0.00 0.00 0.00 72 1008.6
20260505171603 14 5 11.3 27.4 0.00 0.00 0.00 72 1008.7
20260505171331 14 355 11.3 27.4 0.00 0.00 0.00 72 1008.7
20260505170601 14 355 9.7 20.9 0.00 0.00 0.00 72 1008.6
20260505170103 14 336 8.0 19.3 0.00 0.00 0.00 72 1008.7
20260505165825 15 5 9.7 19.3 0.00 0.00 0.00 72 1008.8
20260505165102 15 341 9.7 19.3 0.00 0.00 0.00 72 1008.8
20260505164602 15 36 9.7 20.9 0.00 0.00 0.00 72 1008.8
20260505164101 15 20 9.7 20.9 0.00 0.00 0.00 72 1008.9
20260505163825 15 18 11.3 20.9 0.00 0.00 0.00 72 1008.9
20260505163101 15 14 11.3 25.7 0.00 0.00 0.00 72 1008.9
20260505162602 15 39 8.0 25.7 0.00 0.00 0.00 72 1008.9
20260505162106 15 9 8.0 20.9 0.00 0.00 0.00 73 1008.9
20260505162059 15 340 11.3 20.9 0.00 0.00 0.00 72 1008.9
20260505161054 15 5 11.3 22.5 0.00 0.00 0.00 72 1008.9
20260505160547 15 0 9.7 19.3 0.00 0.00 0.00 72 1008.9